TimeEDT,TemperatureF,Dew PointF,Humidity,Sea Level PressureIn,VisibilityMPH,Wind Direction,Wind SpeedMPH,Gust SpeedMPH,PrecipitationIn,Events,Conditions,WindDirDegrees,DateUTC
12:15 AM,43.7,26.2,50,30.09,10.0,West,6.9,-,N/A,,Clear,280,2013-03-15 04:15:00
12:35 AM,43.7,26.6,51,30.09,10.0,West,8.1,-,N/A,,Clear,280,2013-03-15 04:35:00
12:55 AM,43.9,24.4,46,30.09,10.0,West,8.1,-,N/A,,Clear,280,2013-03-15 04:55:00
1:15 AM,43.9,22.8,43,30.10,10.0,WNW,10.4,16.1,N/A,,Clear,300,2013-03-15 05:15:00
1:35 AM,43.2,21.4,42,30.10,10.0,NW,8.1,-,N/A,,Clear,310,2013-03-15 05:35:00
2:15 AM,41.2,20.7,44,30.12,10.0,NNW,4.6,-,N/A,,Clear,330,2013-03-15 06:15:00
2:35 AM,39.6,22.1,50,30.12,10.0,North,3.5,-,N/A,,Clear,350,2013-03-15 06:35:00
3:15 AM,38.7,30.0,71,30.11,10.0,Calm,Calm,-,N/A,,Clear,0,2013-03-15 07:15:00
3:35 AM,38.1,30.7,75,30.11,10.0,Calm,Calm,-,N/A,,Clear,0,2013-03-15 07:35:00
3:55 AM,38.3,30.7,74,30.10,10.0,Calm,Calm,-,N/A,,Clear,0,2013-03-15 07:55:00
4:15 AM,37.6,29.8,74,30.10,10.0,Calm,Calm,-,N/A,,Clear,0,2013-03-15 08:15:00
4:35 AM,35.8,30.0,80,30.10,10.0,Calm,Calm,-,N/A,,Clear,0,2013-03-15 08:35:00
4:55 AM,35.8,29.8,79,30.11,10.0,Calm,Calm,-,N/A,,Clear,0,2013-03-15 08:55:00
5:15 AM,36.9,28.9,73,30.11,10.0,Calm,Calm,-,N/A,,Clear,0,2013-03-15 09:15:00
5:35 AM,36.9,29.5,75,30.12,10.0,North,3.5,-,N/A,,Clear,350,2013-03-15 09:35:00
5:55 AM,37.2,28.9,72,30.12,10.0,Calm,Calm,-,N/A,,Clear,0,2013-03-15 09:55:00
6:15 AM,37.2,28.6,71,30.12,10.0,Calm,Calm,-,N/A,,Clear,0,2013-03-15 10:15:00
6:35 AM,37.2,28.6,71,30.12,10.0,Calm,Calm,-,N/A,,Clear,0,2013-03-15 10:35:00
6:55 AM,35.8,28.9,76,30.12,10.0,Calm,Calm,-,N/A,,Clear,0,2013-03-15 10:55:00
7:15 AM,34.2,30.6,87,30.12,10.0,Calm,Calm,-,N/A,,Clear,0,2013-03-15 11:15:00
7:35 AM,35.8,31.8,86,30.12,10.0,West,3.5,-,N/A,,Clear,270,2013-03-15 11:35:00
7:55 AM,37.6,31.5,79,30.13,10.0,Calm,Calm,-,N/A,,Clear,0,2013-03-15 11:55:00
8:15 AM,38.8,31.3,74,30.13,10.0,Calm,Calm,-,N/A,,Clear,0,2013-03-15 12:15:00
8:35 AM,40.6,31.5,70,30.14,10.0,Calm,Calm,-,N/A,,Clear,0,2013-03-15 12:35:00
8:55 AM,41.9,31.1,66,30.14,10.0,West,3.5,-,N/A,,Clear,270,2013-03-15 12:55:00
9:15 AM,42.4,29.1,59,30.14,10.0,West,5.8,-,N/A,,Clear,280,2013-03-15 13:15:00
9:35 AM,43.0,27.1,54,30.14,10.0,West,6.9,-,N/A,,Clear,270,2013-03-15 13:35:00
9:55 AM,43.5,25.5,49,30.14,10.0,West,6.9,-,N/A,,Clear,260,2013-03-15 13:55:00
10:15 AM,43.9,24.8,47,30.14,10.0,West,5.8,-,N/A,,Clear,280,2013-03-15 14:15:00
10:35 AM,44.4,24.1,45,30.14,10.0,West,6.9,-,N/A,,Clear,270,2013-03-15 14:35:00
11:55 AM,46.4,20.3,36,30.11,10.0,WNW,8.1,-,N/A,,Clear,290,2013-03-15 15:55:00
12:15 PM,46.8,19.9,35,30.09,10.0,WSW,3.5,-,N/A,,Clear,240,2013-03-15 16:15:00
12:35 PM,47.7,20.5,34,30.08,10.0,WSW,6.9,-,N/A,,Clear,250,2013-03-15 16:35:00
12:55 PM,47.5,22.3,37,30.07,10.0,SSW,5.8,-,N/A,,Clear,210,2013-03-15 16:55:00
1:15 PM,48.2,22.5,36,30.06,10.0,SSE,5.8,-,N/A,,Clear,160,2013-03-15 17:15:00
1:35 PM,48.4,22.6,36,30.05,10.0,South,8.1,-,N/A,,Clear,190,2013-03-15 17:35:00
1:55 PM,49.3,24.8,38,30.03,10.0,South,8.1,-,N/A,,Clear,170,2013-03-15 17:55:00
2:15 PM,49.1,26.2,41,30.01,10.0,South,8.1,16.1,N/A,,Clear,190,2013-03-15 18:15:00
2:35 PM,50.7,24.1,35,30.00,10.0,SW,8.1,16.1,N/A,,Clear,220,2013-03-15 18:35:00
2:55 PM,52.2,20.7,29,29.98,10.0,WSW,5.8,-,N/A,,Clear,240,2013-03-15 18:55:00
3:15 PM,52.0,23.9,34,29.97,10.0,South,5.8,-,N/A,,Clear,190,2013-03-15 19:15:00
3:35 PM,52.5,21.9,30,29.97,10.0,West,8.1,18.4,N/A,,Clear,270,2013-03-15 19:35:00
3:55 PM,52.9,21.0,29,29.96,10.0,WSW,11.5,18.4,N/A,,Clear,250,2013-03-15 19:55:00
4:15 PM,53.8,20.3,27,29.95,10.0,WSW,12.7,21.9,N/A,,Clear,250,2013-03-15 20:15:00
4:35 PM,52.9,23.4,32,29.94,10.0,West,12.7,20.7,N/A,,Clear,270,2013-03-15 20:35:00
4:55 PM,52.3,24.6,34,29.94,10.0,West,8.1,-,N/A,,Clear,270,2013-03-15 20:55:00
5:15 PM,52.5,22.8,31,29.93,10.0,WSW,10.4,18.4,N/A,,Clear,250,2013-03-15 21:15:00
5:35 PM,52.7,23.0,31,29.92,10.0,WSW,10.4,-,N/A,,Clear,250,2013-03-15 21:35:00
5:55 PM,52.3,23.9,33,29.92,10.0,WSW,9.2,-,N/A,,Clear,250,2013-03-15 21:55:00
6:15 PM,52.3,25.0,35,29.92,10.0,WSW,6.9,-,N/A,,Clear,240,2013-03-15 22:15:00
6:35 PM,51.6,27.0,38,29.93,10.0,South,3.5,-,N/A,,Clear,180,2013-03-15 22:35:00
6:55 PM,49.5,32.7,53,29.92,10.0,South,4.6,-,N/A,,Clear,190,2013-03-15 22:55:00
7:15 PM,48.4,35.1,60,29.92,10.0,SSW,4.6,-,N/A,,Clear,200,2013-03-15 23:15:00
7:35 PM,48.0,36.5,64,29.92,10.0,SSW,5.8,-,N/A,,Clear,200,2013-03-15 23:35:00
7:55 PM,48.0,36.3,64,29.92,10.0,SSW,6.9,-,N/A,,Clear,210,2013-03-15 23:55:00
8:15 PM,48.2,34.5,59,29.92,10.0,SW,9.2,16.1,N/A,,Clear,220,2013-03-16 00:15:00
8:35 PM,48.2,34.0,58,29.92,10.0,SW,10.4,-,N/A,,Clear,220,2013-03-16 00:35:00
8:55 PM,47.7,34.2,60,29.92,10.0,SW,9.2,-,N/A,,Clear,220,2013-03-16 00:55:00
9:15 PM,47.5,34.5,61,29.91,10.0,SSW,8.1,-,N/A,,Clear,210,2013-03-16 01:15:00
9:35 PM,47.3,34.5,61,29.92,10.0,SW,9.2,17.3,N/A,,Clear,220,2013-03-16 01:35:00
9:55 PM,46.9,34.5,62,29.92,10.0,SW,8.1,-,N/A,,Clear,220,2013-03-16 01:55:00
10:15 PM,47.1,34.7,62,29.91,10.0,SW,8.1,-,N/A,,Clear,220,2013-03-16 02:15:00
10:35 PM,47.5,35.1,62,29.91,10.0,SW,8.1,16.1,N/A,,Clear,220,2013-03-16 02:35:00
10:55 PM,48.0,35.1,61,29.91,10.0,SW,8.1,-,N/A,,Clear,220,2013-03-16 02:55:00
11:15 PM,47.8,35.2,62,29.91,10.0,SW,9.2,17.3,N/A,,Clear,220,2013-03-16 03:15:00
11:35 PM,48.0,35.2,61,29.91,10.0,SW,6.9,-,N/A,,Clear,220,2013-03-16 03:35:00
11:55 PM,48.0,36.0,63,29.90,10.0,SW,8.1,-,N/A,,Clear,220,2013-03-16 03:55:00